Amsterdam, Netherlands

2:27 AM CEST on April 24, 2017 (GMT +0200)
Schiphol

Weather History for EHAM - January, 2014

Change the Weather History Date:

Thursday, January 2, 2014

  Actual Average Record
Temperature  
Mean Temperature 46 °F -  
Max Temperature 49 °F 41 °F 51 °F (2015)
Min Temperature 42 °F 33 °F 8 °F (1997)
Degree Days  
Heating Degree Days 20    
Moisture  
Dew Point 44 °F    
Average Humidity 87    
Maximum Humidity 93    
Minimum Humidity 74    
Precipitation  
Precipitation 0.03 in - - ()
Sea Level Pressure  
Sea Level Pressure 29.42 in    
Wind  
Wind Speed 17 mph ()    
Max Wind Speed 23 mph    
Max Gust Speed -    
Visibility 7.8 miles    
Events Rain    
Averages and records for this station are not official NWS values.
T = Trace of Precipitation, MM = Missing Value Source: Averaged Metar Reports

Daily Weather History Graph

Daily Weather History Graph

Search for Another Location

Airport or City:

Trip Planner

Search our weather history database for the weather conditions in past years. The results will help you decide how hot, cold, wet, or windy it might be!

Date:

Astronomy

Jan. 02, 2014 Rise Set
Actual Time 8:50 AM CET 4:39 PM CET
Civil Twilight 8:09 AM CET 5:20 PM CET
Nautical Twilight 7:25 AM CET 6:04 PM CET
Astronomical Twilight 6:44 AM CET 6:45 PM CET
Moon 9:05 AM CET (1/2) 6:33 PM CET (1/2)
Length of Visible Light 9h 10m
Length of Day
7h 49m
New Moon, 2% of the Moon is Illuminated
Jan 2
New Moon
Jan 8
First Quarter
Jan 16
Full
Jan 24
Last Quarter
Jan 30
New

Hourly Weather History & Observations

Time (CET) Temp. Windchill Dew Point Humidity Pressure Visibility Wind Dir Wind Speed Gust Speed Precip Events Conditions
12:00 AM 48 °F - 45 °F 87% 29.34 in 8 mi SSE 22.4 mph - - Rain Rain
12:25 AM 48.2 °F - 46.4 °F 93% 29.33 in 6.2 mi South 21.9 mph - N/A Rain Light Rain
12:55 AM 48.2 °F - 46.4 °F 93% 29.30 in 6.2 mi South 23.0 mph - N/A Rain Light Rain
1:00 AM 48 °F - 46 °F 89% 29.32 in 6 mi South 22.4 mph - - Rain Light Rain
1:25 AM 48.2 °F - 46.4 °F 93% 29.30 in 6.2 mi South 23.0 mph - N/A Rain Light Rain
1:55 AM 48.2 °F - 46.4 °F 93% 29.30 in 6.2 mi South 21.9 mph - N/A   Overcast
2:00 AM 48 °F - 46 °F 89% 29.31 in 28 mi South 22.4 mph - - Rain Rain
2:25 AM 48.2 °F - 46.4 °F 93% 29.30 in 6.2 mi South 20.7 mph - N/A   Mostly Cloudy
2:55 AM 48.2 °F - 46.4 °F 93% 29.30 in 6.2 mi South 19.6 mph - N/A   Mostly Cloudy
3:00 AM 49 °F - 46 °F 83% 29.31 in 28 mi South 20.1 mph - -   Overcast
3:25 AM 48.2 °F - 44.6 °F 87% 29.30 in 6.2 mi South 19.6 mph - N/A   Overcast
3:55 AM 48.2 °F - 44.6 °F 87% 29.30 in 6.2 mi South 18.4 mph - N/A   Mostly Cloudy
4:00 AM 49 °F - 45 °F 82% 29.30 in 28 mi South 17.9 mph - -   Overcast
4:25 AM 50.0 °F - 44.6 °F 82% 29.27 in 6.2 mi SSE 16.1 mph - N/A Rain Light Rain
4:55 AM 48.2 °F - 46.4 °F 93% 29.27 in 6.2 mi SSE 16.1 mph - N/A Rain Light Rain
5:00 AM 49 °F - 46 °F 86% 29.29 in 7 mi SSE 15.7 mph - - Rain Light Rain Showers
5:25 AM 50.0 °F - 46.4 °F 87% 29.27 in 6.2 mi South 17.3 mph - N/A   Mostly Cloudy
5:55 AM 50.0 °F - 46.4 °F 87% 29.27 in 6.2 mi South 18.4 mph - N/A   Mostly Cloudy
6:00 AM 50 °F - 46 °F 80% 29.29 in 28 mi South 17.9 mph - - Rain Rain
6:25 AM 48.2 °F - 44.6 °F 87% 29.27 in 6.2 mi South 13.8 mph - N/A   Partly Cloudy
6:55 AM 48.2 °F - 44.6 °F 87% 29.27 in 6.2 mi South 16.1 mph - N/A   Scattered Clouds
7:00 AM 49 °F - 45 °F 81% 29.30 in 28 mi South 15.7 mph - -   Partly Cloudy
7:25 AM 48.2 °F - 44.6 °F 87% 29.30 in 6.2 mi South 16.1 mph - N/A   Mostly Cloudy
7:55 AM 50.0 °F - 46.4 °F 87% 29.30 in 6.2 mi South 16.1 mph - N/A   Mostly Cloudy
8:00 AM 49 °F - 46 °F 84% 29.31 in 28 mi South 13.4 mph - -   Overcast
8:25 AM 50.0 °F - 46.4 °F 87% 29.30 in 6.2 mi South 15.0 mph - N/A   Mostly Cloudy
8:55 AM 50.0 °F - 46.4 °F 87% 29.30 in 6.2 mi South 16.1 mph - N/A   Mostly Cloudy
9:00 AM 49 °F - 46 °F 84% 29.32 in 28 mi South 15.7 mph - -   Overcast
9:25 AM 50.0 °F - 46.4 °F 87% 29.30 in 6.2 mi South 16.1 mph - N/A   Mostly Cloudy
9:55 AM 50.0 °F - 46.4 °F 87% 29.33 in 6.2 mi South 15.0 mph - N/A   Mostly Cloudy
10:00 AM 49 °F - 46 °F 84% 29.33 in 28 mi South 15.7 mph - -   Overcast
10:25 AM 50.0 °F - 46.4 °F 87% 29.33 in 6.2 mi South 15.0 mph - N/A Rain Light Rain
10:55 AM 48.2 °F - 46.4 °F 93% 29.33 in 3.7 mi South 17.3 mph - N/A Rain Rain
11:00 AM 48 °F - 47 °F 93% 29.36 in 3 mi South 17.9 mph - - Rain Heavy Drizzle
11:25 AM 48.2 °F - 46.4 °F 93% 29.36 in 6.2 mi South 15.0 mph - N/A   Light Drizzle
11:55 AM 48.2 °F - 46.4 °F 93% 29.36 in 6.2 mi SW 19.6 mph - N/A Rain Light Drizzle
12:00 PM 49 °F - 47 °F 89% 29.37 in 9 mi SW 20.1 mph - - Rain Light Drizzle
12:25 PM 48.2 °F - 44.6 °F 87% 29.39 in 6.2 mi WSW 20.7 mph - N/A   Mostly Cloudy
12:55 PM 48.2 °F - 44.6 °F 87% 29.39 in 6.2 mi WSW 17.3 mph - N/A   Mostly Cloudy
1:00 PM 49 °F - 45 °F 80% 29.43 in 14 mi WSW 20.1 mph - - Rain Drizzle
1:25 PM 48.2 °F - 42.8 °F 82% 29.42 in 6.2 mi WSW 20.7 mph - N/A   Partly Cloudy
1:55 PM 48.2 °F - 42.8 °F 82% 29.44 in 6.2 mi WSW 18.4 mph - N/A   Partly Cloudy
2:00 PM 49 °F - 43 °F 74% 29.47 in 19 mi WSW 17.9 mph - -   Mostly Cloudy
2:25 PM 48.2 °F - 42.8 °F 82% 29.47 in 6.2 mi WSW 17.3 mph - N/A   Scattered Clouds
2:55 PM 48.2 °F - 42.8 °F 82% 29.47 in 6.2 mi SW 17.3 mph - N/A   Scattered Clouds
3:00 PM 49 °F - 44 °F 76% 29.50 in 14 mi WSW 17.9 mph - -   Overcast
3:25 PM 48.2 °F - 42.8 °F 82% 29.50 in 6.2 mi SW 18.4 mph - N/A   Partly Cloudy
3:55 PM 48.2 °F - 42.8 °F 82% 29.50 in 6.2 mi SW 16.1 mph - N/A   Partly Cloudy
4:00 PM 47 °F - 43 °F 79% 29.53 in 17 mi SW 15.7 mph - -   Scattered Clouds
4:25 PM 46.4 °F 41.5 °F 42.8 °F 87% 29.53 in 6.2 mi SW 10.4 mph - N/A   Partly Cloudy
4:55 PM 46.4 °F 41.1 °F 41.0 °F 81% 29.53 in 6.2 mi SSW 11.5 mph - N/A   Partly Cloudy
5:00 PM 45 °F - 42 °F 84% 29.56 in 13 mi SSW 11.2 mph - -  
5:25 PM 44.6 °F 38.8 °F 42.8 °F 93% 29.53 in 6.2 mi SSW 11.5 mph - N/A   Partly Cloudy
5:55 PM 44.6 °F 38.8 °F 42.8 °F 93% 29.56 in 6.2 mi SSW 11.5 mph - N/A   Partly Cloudy
6:00 PM 44 °F - 42 °F 89% 29.57 in 12 mi SSW 11.2 mph - -   Scattered Clouds
6:25 PM 44.6 °F 38.4 °F 42.8 °F 93% 29.56 in 6.2 mi SSW 12.7 mph - N/A   Partly Cloudy
6:55 PM 44.6 °F 39.2 °F 41.0 °F 87% 29.56 in 6.2 mi South 10.4 mph - N/A   Partly Cloudy
7:00 PM 44 °F - 42 °F 89% 29.59 in 14 mi SSW 11.2 mph - -   Partly Cloudy
7:25 PM 44.6 °F 38.8 °F 42.8 °F 93% 29.59 in 6.2 mi SSW 11.5 mph - N/A   Partly Cloudy
7:55 PM 44.6 °F 38.8 °F 41.0 °F 87% 29.59 in 6.2 mi SSW 11.5 mph - N/A   Partly Cloudy
8:00 PM 45 °F - 42 °F 85% 29.60 in 16 mi SSW 13.4 mph - -   Scattered Clouds
8:25 PM 42.8 °F 36.6 °F 41.0 °F 93% 29.59 in - SSW 11.5 mph - N/A   Clear
8:55 PM 44.6 °F 38.8 °F 41.0 °F 87% 29.59 in 6.2 mi South 11.5 mph - N/A   Partly Cloudy
9:00 PM 44 °F - 42 °F 88% 29.61 in 14 mi South 11.2 mph - -   Partly Cloudy
9:25 PM 42.8 °F 37.5 °F 41.0 °F 93% 29.59 in 6.2 mi South 9.2 mph - N/A   Partly Cloudy
9:55 PM 44.6 °F 38.4 °F 41.0 °F 87% 29.59 in - South 12.7 mph - N/A   Clear
10:00 PM 44 °F - 41 °F 85% 29.62 in 16 mi South 13.4 mph - -   Scattered Clouds
10:25 PM 44.6 °F 38.1 °F 41.0 °F 87% 29.59 in - South 13.8 mph - N/A   Clear
10:55 PM 42.8 °F 36.2 °F 41.0 °F 93% 29.59 in - South 12.7 mph - N/A   Clear
11:00 PM 43 °F - 41 °F 89% 29.61 in 14 mi South 13.4 mph - -   Mostly Cloudy
11:25 PM 42.8 °F 36.6 °F 41.0 °F 93% 29.59 in - SSE 11.5 mph - N/A   Clear
11:55 PM 42.8 °F 35.8 °F 41.0 °F 93% 29.59 in - South 13.8 mph - N/A   Clear